{"data":{"norad_id":45741,"intl_designator":"2020-038M","name":"STARLINK-1480","alt_names":[],"object_type":"PAYLOAD","status":"ACTIVE","operator":null,"country":"US","launch_date":"2020-06-13","launch_site_code":"AFETR","launch_vehicle":null,"mission":null,"orbit_class":"UNKNOWN","rcs_meters":null,"size_class":null,"mass_kg":null,"dimensions":null,"purposes":["comms"],"wikipedia_slug":null,"has_3d_model":false,"image_url":null,"decayed_at":null,"tle_current":{"epoch":"2026-05-25T04:11:46.957056Z","epoch_age_seconds":63465,"freshness":"FRESH","line1":"1 45741U 20038M   26145.17484904  .00066417  00000+0  70457-3 0  9998","line2":"2 45741  53.0489 206.3135 0005922 346.6258  13.4598 15.63476833328395","mean_motion":15.63476833,"eccentricity":0.0005922,"inclination_deg":53.0489,"raan_deg":206.3135,"arg_perigee_deg":346.6258,"mean_anomaly_deg":13.4598,"bstar":0.00070457,"rev_number":32839,"period_min":92.102420042702,"perigee_km":373.62216048333,"apogee_km":381.62368253436,"semimajor_km":6755.7599215088,"source":"CELESTRAK","updated_at":"2026-05-25T13:38:16.432772Z"}}}